Location: Althorst
(53.6379°N, 10.7715°E)
Time: 12:12:17
(UTC+00:00)

BREEZE-M DEB (TANK) - Pass Details

Date: 10 December 2019
Orbit: 347 x 16582 km, 49.4° (Epoch: 25 January)

Event Time Altitude Azimuth Distance (km) Brightness Sun altitude
Rises 16:08:54 0° 278° (W) 6,705 8.9 -9.8°
Reaches altitude 10° 16:15:11 10° 274° (W) 3,968 7.7 -10.7°
Maximum altitude 16:22:24 42° 206° (SSW) 967 4.0 -11.6°
Drops below altitude 10° 16:25:16 10° 133° (SE) 1,569 4.4 -12.0°
Enters shadow 16:26:01 - 127° (SE) 1,904 4.8 -12.1°
